• In Österreich
  • Länderverzeichnis
  • Für 7 Tage
  • Wassertemperatur
  • Satellitenkarten
  • Wetterkarte
  • News
  • Widgets
  • user-avatar
    Anmelden

    Stündliche Wetter Shusha

    Heute, 20 August, Montag

    Zeit Temperatur Niederschläge Wind Luftdruck Luftfeuchtigkeit
    00:00 +17°C° 0 mm 3 m/S 660 mmHg 69%
    01:00 +17°C° 0 mm 2 m/S 660 mmHg 71%
    02:00 +16°C° 0 mm 2 m/S 660 mmHg 74%
    03:00 +16°C° 0 mm 2 m/S 660 mmHg 77%
    04:00 +16°C° 0 mm 2 m/S 660 mmHg 77%
    05:00 +16°C° 0 mm 2 m/S 660 mmHg 77%
    06:00 +16°C° 0 mm 2 m/S 661 mmHg 77%
    07:00 +17°C° 0,1 mm 3 m/S 661 mmHg 74%
    08:00 +17°C° 0,1 mm 3 m/S 661 mmHg 71%
    09:00 +18°C° 0,1 mm 3 m/S 662 mmHg 68%
    10:00 +19°C° 0 mm 3 m/S 662 mmHg 64%
    11:00 +19°C° 0 mm 4 m/S 662 mmHg 60%
    12:00 +20°C° 0 mm 4 m/S 662 mmHg 56%
    13:00 +21°C° 0 mm 4 m/S 662 mmHg 54%
    14:00 +21°C° 0 mm 4 m/S 662 mmHg 52%
    15:00 +22°C° 0 mm 4 m/S 662 mmHg 50%
    16:00 +21°C° 0 mm 4 m/S 662 mmHg 52%
    17:00 +20°C° 0 mm 4 m/S 662 mmHg 54%
    18:00 +20°C° 0 mm 3 m/S 662 mmHg 56%
    19:00 +19°C° 0 mm 3 m/S 662 mmHg 61%
    20:00 +17°C° 0 mm 2 m/S 661 mmHg 66%
    21:00 +16°C° 0 mm 1 m/S 661 mmHg 71%
    22:00 +15°C° 0 mm 1 m/S 661 mmHg 72%
    23:00 +15°C° 0 mm 1 m/S 661 mmHg 74%

    Morgen, 21 August, Dienstag

    Zeit Temperatur Niederschläge Wind Luftdruck Luftfeuchtigkeit
    00:00 +15°C° 0 mm 1 m/S 661 mmHg 75%
    01:00 +14°C° 0 mm 1 m/S 661 mmHg 75%
    02:00 +14°C° 0 mm 1 m/S 661 mmHg 76%
    03:00 +14°C° 0 mm 1 m/S 660 mmHg 76%
    04:00 +14°C° 0 mm 1 m/S 660 mmHg 75%
    05:00 +14°C° 0 mm 1 m/S 661 mmHg 73%
    06:00 +15°C° 0 mm 1 m/S 661 mmHg 72%
    07:00 +16°C° 0 mm 1 m/S 661 mmHg 65%
    08:00 +18°C° 0 mm 2 m/S 661 mmHg 57%
    09:00 +20°C° 0 mm 2 m/S 662 mmHg 50%
    10:00 +23°C° 0 mm 2 m/S 662 mmHg 46%
    11:00 +24°C° 0 mm 3 m/S 662 mmHg 43%
    12:00 +25°C° 0 mm 3 m/S 662 mmHg 39%
    13:00 +26°C° 0 mm 3 m/S 661 mmHg 39%
    14:00 +26°C° 0 mm 3 m/S 661 mmHg 38%
    15:00 +27°C° 0 mm 3 m/S 661 mmHg 38%
    16:00 +26°C° 0 mm 3 m/S 660 mmHg 41%
    17:00 +25°C° 0 mm 3 m/S 660 mmHg 44%
    18:00 +24°C° 0 mm 3 m/S 660 mmHg 48%
    19:00 +21°C° 0 mm 2 m/S 660 mmHg 55%
    20:00 +20°C° 0 mm 2 m/S 660 mmHg 61%
    21:00 +19°C° 0 mm 1 m/S 660 mmHg 68%
    22:00 +19°C° 0 mm 1 m/S 660 mmHg 70%
    23:00 +18°C° 0 mm 1 m/S 660 mmHg 71%

    übermorgen, 22 August, Mittwoch

    Zeit Temperatur Niederschläge Wind Luftdruck Luftfeuchtigkeit
    00:00 +18°C° 0 mm 1 m/S 660 mmHg 72%
    01:00 +18°C° 0 mm 1 m/S 660 mmHg 74%
    02:00 +16°C° 0 mm 1 m/S 659 mmHg 75%
    03:00 +16°C° 0 mm 1 m/S 659 mmHg 76%
    04:00 +16°C° 0 mm 1 m/S 659 mmHg 74%
    05:00 +16°C° 0 mm 1 m/S 660 mmHg 73%
    06:00 +18°C° 0 mm 1 m/S 660 mmHg 71%
    07:00 +20°C° 0 mm 1 m/S 660 mmHg 62%
    08:00 +21°C° 0 mm 2 m/S 661 mmHg 53%
    09:00 +24°C° 0 mm 2 m/S 661 mmHg 44%
    10:00 +25°C° 0 mm 2 m/S 661 mmHg 40%
    11:00 +26°C° 0 mm 3 m/S 661 mmHg 37%
    12:00 +27°C° 0 mm 3 m/S 661 mmHg 33%
    13:00 +28°C° 0 mm 3 m/S 661 mmHg 33%
    14:00 +28°C° 0 mm 3 m/S 661 mmHg 33%
    15:00 +28°C° 0 mm 3 m/S 660 mmHg 33%
    16:00 +28°C° 0 mm 3 m/S 660 mmHg 36%
    17:00 +27°C° 0 mm 3 m/S 660 mmHg 39%
    18:00 +26°C° 0 mm 2 m/S 660 mmHg 42%
    19:00 +24°C° 0 mm 2 m/S 660 mmHg 47%
    20:00 +21°C° 0 mm 2 m/S 660 mmHg 52%
    21:00 +21°C° 0 mm 1 m/S 661 mmHg 57%
    22:00 +20°C° 0 mm 1 m/S 661 mmHg 58%
    23:00 +20°C° 0 mm 1 m/S 661 mmHg 59%

    23 August, Donnerstag

    Zeit Temperatur Niederschläge Wind Luftdruck Luftfeuchtigkeit
    00:00 +19°C° 0 mm 1 m/S 661 mmHg 60%
    01:00 +19°C° 0 mm 1 m/S 660 mmHg 61%
    02:00 +19°C° 0 mm 1 m/S 660 mmHg 62%
    03:00 +18°C° 0 mm 1 m/S 660 mmHg 63%
    04:00 +18°C° 0 mm 1 m/S 661 mmHg 61%
    05:00 +19°C° 0 mm 1 m/S 661 mmHg 60%
    06:00 +19°C° 0 mm 1 m/S 661 mmHg 59%
    07:00 +20°C° 0 mm 2 m/S 661 mmHg 52%
    08:00 +23°C° 0 mm 2 m/S 662 mmHg 45%
    09:00 +25°C° 0 mm 2 m/S 662 mmHg 38%
    10:00 +26°C° 0 mm 3 m/S 662 mmHg 35%
    11:00 +27°C° 0 mm 3 m/S 662 mmHg 32%
    12:00 +28°C° 0 mm 4 m/S 662 mmHg 29%
    13:00 +29°C° 0 mm 4 m/S 662 mmHg 29%
    14:00 +29°C° 0 mm 4 m/S 662 mmHg 28%
    15:00 +29°C° 0 mm 4 m/S 662 mmHg 28%
    16:00 +28°C° 0 mm 4 m/S 662 mmHg 30%
    17:00 +27°C° 0 mm 3 m/S 662 mmHg 32%
    18:00 +26°C° 0 mm 3 m/S 662 mmHg 34%
    19:00 +24°C° 0 mm 3 m/S 662 mmHg 38%
    20:00 +23°C° 0 mm 2 m/S 662 mmHg 42%
    21:00 +20°C° 0 mm 2 m/S 662 mmHg 46%
    22:00 +19°C° 0 mm 2 m/S 661 mmHg 47%
    23:00 +19°C° 0 mm 2 m/S 661 mmHg 48%

    24 August, Freitag

    Zeit Temperatur Niederschläge Wind Luftdruck Luftfeuchtigkeit
    00:00 +18°C° 0 mm 2 m/S 661 mmHg 49%
    01:00 +18°C° 0 mm 2 m/S 661 mmHg 50%
    02:00 +18°C° 0 mm 2 m/S 661 mmHg 50%
    03:00 +17°C° 0 mm 2 m/S 661 mmHg 51%
    04:00 +17°C° 0 mm 2 m/S 661 mmHg 50%
    05:00 +18°C° 0 mm 2 m/S 661 mmHg 49%
    06:00 +18°C° 0 mm 2 m/S 661 mmHg 48%
    07:00 +20°C° 0 mm 2 m/S 662 mmHg 42%
    08:00 +23°C° 0 mm 2 m/S 662 mmHg 36%
    09:00 +25°C° 0 mm 2 m/S 663 mmHg 29%
    10:00 +26°C° 0 mm 2 m/S 662 mmHg 27%
    11:00 +28°C° 0 mm 3 m/S 662 mmHg 25%
    12:00 +29°C° 0 mm 3 m/S 662 mmHg 23%
    13:00 +29°C° 0 mm 3 m/S 662 mmHg 22%
    14:00 +30°C° 0 mm 3 m/S 661 mmHg 22%
    15:00 +30°C° 0 mm 4 m/S 661 mmHg 22%
    16:00 +29°C° 0 mm 3 m/S 661 mmHg 24%
    17:00 +28°C° 0 mm 3 m/S 661 mmHg 26%
    18:00 +27°C° 0 mm 2 m/S 661 mmHg 28%
    19:00 +25°C° 0 mm 2 m/S 661 mmHg 31%
    20:00 +23°C° 0 mm 2 m/S 660 mmHg 34%
    21:00 +20°C° 0 mm 2 m/S 660 mmHg 37%
    22:00 +20°C° 0 mm 2 m/S 660 mmHg 38%
    23:00 +19°C° 0 mm 2 m/S 660 mmHg 39%

    25 August, Samstag

    Zeit Temperatur Niederschläge Wind Luftdruck Luftfeuchtigkeit
    00:00 +19°C° 0 mm 2 m/S 660 mmHg 40%
    01:00 +19°C° 0 mm 2 m/S 660 mmHg 40%
    02:00 +18°C° 0 mm 2 m/S 660 mmHg 41%
    03:00 +18°C° 0 mm 2 m/S 660 mmHg 41%
    04:00 +18°C° 0 mm 2 m/S 660 mmHg 41%
    05:00 +18°C° 0 mm 2 m/S 660 mmHg 40%
    06:00 +19°C° 0 mm 1 m/S 660 mmHg 40%
    07:00 +20°C° 0 mm 2 m/S 660 mmHg 34%
    08:00 +24°C° 0 mm 2 m/S 661 mmHg 29%
    09:00 +26°C° 0 mm 2 m/S 661 mmHg 24%
    10:00 +27°C° 0 mm 2 m/S 661 mmHg 22%
    11:00 +28°C° 0 mm 3 m/S 661 mmHg 20%
    12:00 +30°C° 0 mm 3 m/S 661 mmHg 19%
    13:00 +30°C° 0 mm 3 m/S 661 mmHg 19%
    14:00 +30°C° 0 mm 3 m/S 661 mmHg 19%
    15:00 +31°C° 0 mm 3 m/S 660 mmHg 19%
    16:00 +30°C° 0 mm 3 m/S 660 mmHg 21%
    17:00 +28°C° 0 mm 3 m/S 660 mmHg 23%
    18:00 +27°C° 0 mm 2 m/S 659 mmHg 26%
    19:00 +25°C° 0 mm 2 m/S 659 mmHg 29%
    20:00 +24°C° 0 mm 2 m/S 659 mmHg 31%
    21:00 +21°C° 0 mm 2 m/S 659 mmHg 34%
    22:00 +20°C° 0 mm 2 m/S 659 mmHg 35%
    23:00 +20°C° 0 mm 2 m/S 659 mmHg 36%
    Mehr zeigen